Flag for U.S.A. Weather past 2 weeks in Bakersfield, California, U.S.A.

Now
63 °F

Sunny.


Feels Like: 63 °F
Forecast: 61 / 87 °F
Wind: 7 mph from North

Location: Meadows Field

Current Time: May 27, 2015 at 7:33:48 AM

Latest Report: May 27, 2015 at 6:54 AM


Visibility: 10 mi

Pressure: 29.94 "Hg

Humidity: 56%

Dew point: 47 °F

Location of BakersfieldLocation

Historic Weather in Bakersfield — Graph

°F

Bakersfield temperature yesterday

Maximum temperature yesterday: 84 °F (at 4:54 PM)
Minimum temperature yesterday: 63 °F (at 5:54 AM)
Average temperature yesterday: 73 °F

Past Weeks' High & Low Weather Summary

 TemperatureHumidityPressure
High87 °F (May 25, 4:54 PM)90% (May 22, 6:54 AM)30.07 "Hg (May 22, 6:54 AM)
Low51 °F (May 16, 5:54 AM)13% (May 13, 3:54 PM)29.74 "Hg (May 14, 4:54 PM)
Average67 °F47%29.91 "Hg
* Reported May 12 5:54 AM — May 27 5:54 AM, Bakersfield, Weather by CustomWeather, © 2015

Note: Actual official high and low records may vary slightly from our data, if they occured in-between our weather recording intervals... More about our weather records

Advertising

Bakersfield weather history for previous 24 hours

 ConditionsComfort  
Time TempWeatherWind HumidityBarometerVisibility
5:54 AM
Wed, May 27
61 °FClear.5 mph58%29.93 "Hg10 mi
4:54 AM61 °FClear.No wind60%29.93 "Hg10 mi
3:54 AM62 °FClear.6 mph58%29.92 "Hg10 mi
2:54 AM64 °FClear.9 mph56%29.90 "Hg10 mi
1:54 AM65 °FClear.7 mph54%29.90 "Hg10 mi
12:54 AM68 °FPassing clouds.No wind45%29.90 "Hg10 mi
11:54 PM
Tue, May 26
70 °FClear.5 mph42%29.90 "Hg10 mi
10:54 PM72 °FClear.8 mph43%29.89 "Hg10 mi
9:54 PM73 °FClear.8 mph50%29.88 "Hg10 mi
8:54 PM80 °FSunny.3 mph32%29.86 "Hg10 mi
7:54 PM81 °FSunny.5 mph33%29.84 "Hg10 mi
6:54 PM82 °FSunny.7 mph32%29.84 "Hg10 mi
5:54 PM84 °FSunny.7 mph30%29.84 "Hg10 mi
4:54 PM84 °FSunny.13 mph30%29.84 "Hg10 mi
3:54 PM82 °FSunny.12 mph32%29.85 "Hg10 mi
2:54 PM82 °FSunny.12 mph31%29.87 "Hg10 mi
1:54 PM82 °FSunny.12 mph29%29.88 "Hg10 mi
12:54 PM80 °FSunny.10 mph31%29.91 "Hg10 mi
11:54 AM76 °FSunny.8 mph37%29.93 "Hg10 mi
10:54 AM74 °FSunny.9 mph41%29.93 "Hg10 mi
9:54 AM70 °FSunny.3 mph46%29.93 "Hg10 mi
8:54 AM67 °FSunny.6 mph51%29.94 "Hg10 mi
7:54 AM66 °FSunny.8 mph52%29.94 "Hg10 mi
Weather by CustomWeather, © 2015

See weather overviewHow to use our weather pages